Location: Unspecified
(0.0000°N, 0.0000°E)
Time: 11:16:28
(UTC+00:00)

Transit 4A - Pass Details

Date: 19 November 2019
Orbit: 870 x 975 km, 66.8° (Epoch: 13 December)

Event Time Altitude Azimuth Distance (km) Brightness Sun altitude
Rises 07:15:55 0° 8° (N) 3,441 10.7 21.3°
Reaches altitude 10° 07:19:03 10° 24° (NNE) 2,505 10.3 22.0°
Maximum altitude 07:23:10 20° 70° (ENE) 1,901 10.5 23.0°
Drops below altitude 10° 07:27:17 10° 116° (ESE) 2,524 12.2 24.0°
Sets 07:30:26 0° 132° (SE) 3,477 12.0 24.7°
